Orbital Elements at Epoch 2459200.5 (2020-Dec-17.0) TDB
Reference: JPL 15 (heliocentric ecliptic J2000)
Element | Value | Uncertainty (1-sigma) | Units |
e | .1947250439164064 | 4.6379e-08 | |
a | 2.253406960286077 | 7.3361e-09 | au |
q | 1.814612190982835 | 1.0301e-07 | au |
i | 7.278811364123621 | 4.5327e-06 | deg |
node | 69.59047014404629 | 3.777e-05 | deg |
peri | 265.0449384260516 | 4.0099e-05 | deg |
M | 154.1315128347445 | 1.2665e-05 | deg |
tp | 2458671.510789128835 (2019-Jul-07.01078913) | 4.2741e-05 | TDB |
period | 1235.543026933108 3.38 | 6.0336e-06 1.652e-08 | d yr |
n | .2913698609862256 | 1.4229e-09 | deg/d |
Q | 2.692201729589319 | 8.7646e-09 | au |
|
| | Orbit Determination Parameters
Additional Information
|